This demonstration page uses our WeatherBlox Daily Observations layout. Learn more.

Left ArrowRight Arrow

Hourly Observations for December 26, 2020

Temp ( °F °C ) Dew Point ( °F °C ) Humidity (%) Winds ( mph kmh ) Pressure ( in mb ) Visibility ( mi km ) Precip ( " mm )
12:52 am 00:52 Mostly Cloudy 18 -7.8 17 -8.3 96 96 NW 3 6 30.00 1016 10 16 0.00 0.00
1:52 am 01:52 Mostly Cloudy 18 -7.8 17 -8.3 96 96 Calm 29.99 1016 10 16 0.00 0.00
2:52 am 02:52 Mostly Cloudy 16 -8.9 13 -10.6 88 88 Calm 30.00 1016 10 16 0.00 0.00
3:52 am 03:52 Cloudy 18 -7.8 15 -9.4 88 88 Calm 29.99 1016 10 16 0.00 0.00
4:52 am 04:52 Cloudy 17 -8.3 16 -8.9 95 95 SE 3 6 29.98 1015 8 13 0.00 0.00
5:52 am 05:52 Cloudy 17 -8.3 15 -9.4 92 92 NW 5 7 29.99 1016 10 16 0.00 0.00
6:17 am 06:17 Cloudy with Mist and Fog 15 -9.4 14 -10 95 95 N 6 9 30.04 1017 2 3 0.00 0.00
6:29 am 06:29 Mostly Cloudy with Mist and Fog 16 -8.9 15 -9.4 96 96 NNW 3 6 30.04 1017 2 2 0.00 0.00
6:42 am 06:42 Mostly Cloudy with Mist and Fog 16 -8.9 15 -9.4 96 96 WNW 3 6 30.04 1017 1 2 0.00 0.00
6:52 am 06:52 Mostly Cloudy with Mist and Fog 15 -9.4 14 -10 95 95 NW 5 7 29.99 1016 1 2 0.00 0.00
7:00 am 07:00 Mostly Cloudy with Mist and Fog 15 -9.4 14 -10 95 95 NNW 5 7 30.05 1018 4 6 0.00 0.00
7:09 am 07:09 Partly Cloudy 15 -9.4 14 -10 95 95 Calm 30.04 1017 10 16 0.00 0.00
7:41 am 07:41 Mostly Cloudy with Mist and Fog 14 -10 13 -10.6 95 95 Calm 30.05 1017 4 6 0.00 0.00
7:43 am 07:43 Mostly Cloudy with Mist and Fog 14 -10 13 -10.6 95 95 Calm 30.05 1017 2 3 0.00 0.00
7:48 am 07:48 Mostly Cloudy with Mist and Fog 14 -10 12 -11 92 92 Calm 30.05 1017 1 1 0.00 0.00
7:52 am 07:52 Mostly Cloudy with Mist and Fog 14 -10 13 -10.6 95 95 N 3 6 29.99 1016 2 2 0.00 0.00
8:32 am 08:32 Mostly Cloudy with Mist and Fog 15 -9.4 13 -10.6 91 91 NNW 3 6 30.05 1018 3 5 0.00 0.00
8:52 am 08:52 Mostly Cloudy with Mist and Fog 16 -8.9 14 -10 92 92 N 5 7 30.00 1016 4 6 0.00 0.00
9:52 am 09:52 Mostly Cloudy with Mist and Fog 21 -6.1 19 -7.2 92 92 NW 5 7 30.01 1016 6 10 0.00 0.00
10:52 am 10:52 Mostly Cloudy 26 -3.3 24 -4.4 92 92 Calm 29.99 1016 10 16 0.00 0.00
11:52 am 11:52 Mostly Cloudy 34 1.1 25 -3.9 70 70 SSE 9 15 29.94 1014 10 16 0.00 0.00
12:52 pm 12:52 Mostly Cloudy 37 2.8 27 -2.8 67 67 Calm 29.91 1013 10 16 0.00 0.00
1:52 pm 13:52 Mostly Cloudy 39 3.9 27 -2.8 62 62 S 3 6 29.88 1012 10 16 0.00 0.00
2:52 pm 14:52 Mostly Cloudy 40 4.4 29 -1.7 65 65 N 3 6 29.86 1011 10 16 0.00 0.00
3:52 pm 15:52 Mostly Cloudy 41 5 29 -1.7 62 62 E 7 11 29.83 1010 10 16 0.00 0.00
4:52 pm 16:52 Mostly Cloudy 40 4.4 28 -2.2 63 63 E 3 6 29.83 1010 10 16 0.00 0.00
5:52 pm 17:52 Mostly Cloudy 35 1.7 27 -2.8 72 72 SE 6 9 29.81 1009 10 16 0.00 0.00
6:52 pm 18:52 Mostly Cloudy 34 1.1 26 -3.3 73 73 Calm 29.80 1009 10 16 0.00 0.00
7:52 pm 19:52 Mostly Cloudy 34 1.1 25 -3.9 70 70 Calm 29.79 1009 10 16 0.00 0.00
8:52 pm 20:52 Mostly Cloudy 34 1.1 25 -3.9 70 70 SSE 6 9 29.78 1008 10 16 0.00 0.00
9:52 pm 21:52 Mostly Cloudy 32 0 24 -4.4 73 73 Calm 29.75 1008 10 16 0.00 0.00
10:52 pm 22:52 Mostly Cloudy 30 -1.1 24 -4.4 79 79 SSE 3 6 29.74 1007 10 16 0.00 0.00
11:52 pm 23:52 Cloudy 31 -0.6 24 -4.4 76 76 Calm 29.71 1006 10 16 0.00 0.00

Powered by AerisWeather